| time (UTC) | temp F | wind direction | speed knots | gust knots | rain 1hr in | rain 24hr in | rain mn in | humidity % | barometer mb |
| 20260510065758 | 52 | 261 | 0.0 | 0.0 | 0.00 | 0.00 | 0.00 | 89 | 1012.9 |
| 20260510065255 | 52 | 261 | 0.0 | 0.0 | 0.00 | 0.00 | 0.00 | 89 | 1013.0 |
| 20260510064752 | 52 | 276 | 0.0 | 0.0 | 0.00 | 0.00 | 0.00 | 88 | 1012.8 |
| 20260510064250 | 52 | 311 | 0.0 | 2.6 | 0.00 | 0.00 | 0.00 | 88 | 1013.0 |
| 20260510063746 | 53 | 75 | 0.0 | 0.0 | 0.00 | 0.00 | 0.00 | 86 | 1013.0 |
| 20260510063242 | 54 | 71 | 0.0 | 0.9 | 0.00 | 0.00 | 0.00 | 84 | 1012.9 |
| 20260510062739 | 55 | 65 | 0.0 | 0.9 | 0.00 | 0.00 | 0.00 | 82 | 1012.7 |
| 20260510062235 | 55 | 49 | 0.0 | 0.0 | 0.00 | 0.00 | 0.00 | 84 | 1012.6 |
| 20260510061730 | 54 | 48 | 0.9 | 1.7 | 0.00 | 0.00 | 0.00 | 85 | 1012.6 |
| 20260510061228 | 54 | 74 | 0.0 | 0.0 | 0.00 | 0.00 | 0.00 | 88 | 1012.7 |
| 20260510060724 | 53 | 74 | 1.7 | 1.7 | 0.00 | 0.00 | 0.00 | 92 | 1012.6 |
| 20260510060221 | 52 | 71 | 0.9 | 1.7 | 0.00 | 0.00 | 0.00 | 93 | 1012.8 |
| 20260510055717 | 52 | 67 | 0.9 | 0.9 | 0.00 | 0.00 | 0.00 | 93 | 1012.7 |
| 20260510055216 | 52 | 66 | 0.9 | 0.9 | 0.00 | 0.00 | 0.00 | 93 | 1012.6 |
| 20260510054716 | 52 | 80 | 0.9 | 0.9 | 0.00 | 0.00 | 0.00 | 94 | 1012.8 |
| 20260510054212 | 52 | 80 | 0.9 | 1.7 | 0.00 | 0.00 | 0.00 | 94 | 1013.0 |
| 20260510053711 | 52 | 74 | 1.7 | 1.7 | 0.00 | 0.00 | 0.00 | 94 | 1012.9 |
| 20260510053208 | 52 | 95 | 0.0 | 0.9 | 0.00 | 0.00 | 0.00 | 94 | 1012.9 |
| 20260510052703 | 52 | 188 | 0.0 | 0.0 | 0.00 | 0.00 | 0.00 | 94 | 1013.0 |
| 20260510052200 | 51 | 188 | 0.0 | 0.9 | 0.00 | 0.00 | 0.00 | 93 | 1013.0 |
| 20260510051656 | 51 | 208 | 0.0 | 0.0 | 0.00 | 0.00 | 0.00 | 93 | 1013.1 |
| 20260510051153 | 52 | 208 | 0.0 | 0.0 | 0.00 | 0.00 | 0.00 | 93 | 1013.0 |
| 20260510050650 | 52 | 208 | 0.0 | 0.0 | 0.00 | 0.00 | 0.00 | 93 | 1012.9 |
| 20260510050147 | 52 | 208 | 0.0 | 0.0 | 0.00 | 0.00 | 0.00 | 92 | 1013.0 |
| 20260510045643 | 52 | 208 | 0.0 | 0.9 | 0.00 | 0.00 | 0.00 | 92 | 1013.0 |
| 20260510045140 | 52 | 131 | 0.0 | 0.0 | 0.00 | 0.00 | 0.00 | 91 | 1012.9 |
| 20260510044636 | 53 | 74 | 0.0 | 0.0 | 0.00 | 0.00 | 0.00 | 91 | 1012.9 |
| 20260510044134 | 53 | 74 | 0.0 | 0.0 | 0.00 | 0.00 | 0.00 | 90 | 1013.1 |
| 20260510043630 | 53 | 74 | 0.0 | 0.0 | 0.00 | 0.00 | 0.00 | 90 | 1013.0 |
| 20260510043126 | 53 | 76 | 0.0 | 0.0 | 0.00 | 0.00 | 0.00 | 90 | 1013.0 |
| 20260510042624 | 54 | 76 | 0.0 | 0.0 | 0.00 | 0.00 | 0.00 | 90 | 1013.0 |
| 20260510042119 | 54 | 76 | 0.0 | 0.0 | 0.00 | 0.00 | 0.00 | 90 | 1012.9 |
| 20260510041617 | 54 | 76 | 0.0 | 0.0 | 0.00 | 0.00 | 0.00 | 89 | 1013.0 |
| 20260510041114 | 55 | 76 | 0.0 | 0.0 | 0.00 | 0.00 | 0.00 | 89 | 1012.7 |
| 20260510040611 | 55 | 91 | 0.0 | 0.0 | 0.00 | 0.00 | 0.00 | 89 | 1012.9 |
| 20260510040108 | 54 | 104 | 0.0 | 0.0 | 0.00 | 0.00 | 0.00 | 92 | 1013.2 |
| 20260510035604 | 53 | 104 | 0.0 | 0.0 | 0.00 | 0.00 | 0.00 | 92 | 1013.1 |
| 20260510035104 | 54 | 106 | 0.0 | 0.0 | 0.00 | 0.00 | 0.00 | 92 | 1013.1 |
| 20260510034601 | 54 | 119 | 0.0 | 0.0 | 0.00 | 0.00 | 0.00 | 91 | 1013.0 |
| 20260510034058 | 54 | 118 | 0.0 | 0.0 | 0.00 | 0.00 | 0.00 | 92 | 1012.9 |
| 20260510033549 | 54 | 118 | 0.0 | 0.0 | 0.00 | 0.00 | 0.00 | 91 | 1012.8 |
| 20260510033047 | 55 | 118 | 0.0 | 0.0 | 0.00 | 0.00 | 0.00 | 90 | 1012.8 |
| 20260510032543 | 54 | 118 | 0.0 | 0.0 | 0.00 | 0.00 | 0.00 | 90 | 1013.0 |
| 20260510032039 | 55 | 118 | 0.0 | 0.0 | 0.00 | 0.00 | 0.00 | 90 | 1012.7 |
| 20260510031539 | 55 | 118 | 0.0 | 0.0 | 0.00 | 0.00 | 0.00 | 88 | 1012.7 |
| 20260510031035 | 55 | 118 | 0.0 | 0.0 | 0.00 | 0.00 | 0.00 | 87 | 1012.5 |
| 20260510030531 | 56 | 118 | 0.0 | 0.0 | 0.00 | 0.00 | 0.00 | 87 | 1012.5 |
| 20260510030028 | 56 | 118 | 0.0 | 0.0 | 0.00 | 0.00 | 0.00 | 86 | 1012.6 |
| 20260510025525 | 56 | 118 | 0.0 | 0.0 | 0.00 | 0.00 | 0.00 | 86 | 1012.5 |
| 20260510025023 | 56 | 118 | 0.0 | 0.0 | 0.00 | 0.00 | 0.00 | 85 | 1012.6 |
| 20260510024519 | 56 | 118 | 0.0 | 0.0 | 0.00 | 0.00 | 0.00 | 85 | 1012.4 |
| 20260510024015 | 56 | 118 | 0.9 | 0.9 | 0.00 | 0.00 | 0.00 | 85 | 1012.6 |
| 20260510023511 | 56 | 229 | 0.0 | 0.0 | 0.00 | 0.00 | 0.00 | 83 | 1012.4 |
| 20260510023009 | 57 | 229 | 0.0 | 0.9 | 0.00 | 0.00 | 0.00 | 83 | 1012.2 |
| 20260510022508 | 58 | 206 | 0.0 | 0.0 | 0.00 | 0.00 | 0.00 | 81 | 1012.3 |
| 20260510022008 | 58 | 206 | 0.0 | 0.0 | 0.00 | 0.00 | 0.00 | 80 | 1012.1 |
| 20260510021505 | 58 | 206 | 0.0 | 0.0 | 0.00 | 0.00 | 0.00 | 80 | 1012.3 |
| 20260510021002 | 58 | 206 | 0.0 | 0.0 | 0.00 | 0.00 | 0.00 | 80 | 1012.2 |
| 20260510020456 | 58 | 206 | 0.0 | 0.0 | 0.00 | 0.00 | 0.00 | 80 | 1012.1 |
| 20260510015952 | 58 | 206 | 0.0 | 0.0 | 0.00 | 0.00 | 0.00 | 80 | 1012.0 |
| 20260510015448 | 59 | 206 | 0.0 | 0.0 | 0.00 | 0.00 | 0.00 | 79 | 1012.0 |
| 20260510014943 | 59 | 206 | 0.0 | 0.0 | 0.00 | 0.00 | 0.00 | 78 | 1011.8 |
| 20260510014441 | 59 | 206 | 0.0 | 0.0 | 0.00 | 0.00 | 0.00 | 78 | 1011.7 |
| 20260510013938 | 59 | 206 | 0.0 | 0.0 | 0.00 | 0.00 | 0.00 | 78 | 1011.6 |
| 20260510013432 | 60 | 206 | 0.0 | 0.0 | 0.00 | 0.00 | 0.00 | 77 | 1011.5 |
| 20260510012928 | 60 | 206 | 0.0 | 0.0 | 0.00 | 0.00 | 0.00 | 76 | 1011.4 |
| 20260510012423 | 60 | 206 | 0.0 | 0.0 | 0.00 | 0.00 | 0.00 | 75 | 1011.3 |
| 20260510011918 | 61 | 206 | 0.0 | 0.0 | 0.00 | 0.00 | 0.00 | 74 | 1011.4 |
| 20260510011413 | 61 | 206 | 0.0 | 0.0 | 0.00 | 0.00 | 0.00 | 73 | 1011.2 |
| 20260510010910 | 62 | 206 | 0.0 | 0.0 | 0.00 | 0.00 | 0.00 | 72 | 1010.9 |
| 20260510010407 | 62 | 206 | 0.0 | 0.0 | 0.00 | 0.00 | 0.00 | 71 | 1011.0 |
| 20260510005904 | 63 | 206 | 0.0 | 0.0 | 0.00 | 0.00 | 0.00 | 70 | 1010.9 |
| 20260510005400 | 63 | 206 | 0.0 | 0.9 | 0.00 | 0.00 | 0.00 | 69 | 1010.8 |
| 20260510004858 | 63 | 206 | 0.0 | 0.0 | 0.00 | 0.00 | 0.00 | 68 | 1010.9 |
| 20260510004355 | 64 | 206 | 0.0 | 0.9 | 0.00 | 0.00 | 0.00 | 68 | 1010.4 |
| 20260510003853 | 64 | 206 | 0.0 | 0.0 | 0.00 | 0.00 | 0.00 | 67 | 1010.5 |
| 20260510003349 | 65 | 206 | 0.0 | 0.9 | 0.00 | 0.00 | 0.00 | 65 | 1010.6 |
| 20260510002848 | 65 | 211 | 0.0 | 0.0 | 0.00 | 0.00 | 0.00 | 64 | 1010.5 |
| 20260510002346 | 66 | 211 | 0.0 | 0.9 | 0.00 | 0.00 | 0.00 | 63 | 1010.5 |
| 20260510001842 | 67 | 211 | 0.0 | 0.0 | 0.00 | 0.00 | 0.00 | 61 | 1010.3 |
| 20260510001340 | 68 | 212 | 0.0 | 0.0 | 0.00 | 0.00 | 0.00 | 60 | 1010.1 |
| 20260510000836 | 69 | 211 | 0.0 | 0.0 | 0.00 | 0.00 | 0.00 | 57 | 1010.2 |
| 20260510000334 | 69 | 212 | 0.0 | 0.0 | 0.00 | 0.00 | 0.00 | 57 | 1010.4 |
| 20260509235830 | 70 | 229 | 0.9 | 0.9 | 0.00 | 0.00 | 0.00 | 55 | 1010.2 |
| 20260509235327 | 70 | 217 | 1.7 | 1.7 | 0.00 | 0.00 | 0.00 | 55 | 1010.4 |
| 20260509234822 | 70 | 215 | 0.9 | 1.7 | 0.00 | 0.00 | 0.00 | 56 | 1010.2 |
| 20260509234319 | 70 | 221 | 1.7 | 1.7 | 0.00 | 0.00 | 0.00 | 55 | 1010.4 |
| 20260509233818 | 71 | 226 | 0.0 | 1.7 | 0.00 | 0.00 | 0.00 | 55 | 1010.1 |
| 20260509233315 | 72 | 236 | 0.9 | 1.7 | 0.00 | 0.00 | 0.00 | 53 | 1010.1 |
| 20260509232811 | 72 | 223 | 1.7 | 1.7 | 0.00 | 0.00 | 0.00 | 53 | 1010.0 |
| 20260509232308 | 73 | 224 | 0.9 | 1.7 | 0.00 | 0.00 | 0.00 | 53 | 1010.2 |
| 20260509231804 | 73 | 215 | 0.0 | 2.6 | 0.00 | 0.00 | 0.00 | 52 | 1010.0 |
| 20260509231301 | 74 | 230 | 0.9 | 1.7 | 0.00 | 0.00 | 0.00 | 51 | 1009.8 |
| 20260509230759 | 74 | 223 | 2.6 | 3.5 | 0.00 | 0.00 | 0.00 | 48 | 1010.0 |
| 20260509230256 | 74 | 209 | 1.7 | 1.7 | 0.00 | 0.00 | 0.00 | 49 | 1009.9 |
| 20260509225751 | 73 | 210 | 0.0 | 2.6 | 0.00 | 0.00 | 0.00 | 52 | 1010.1 |
| 20260509225247 | 75 | 220 | 3.5 | 3.5 | 0.00 | 0.00 | 0.00 | 48 | 1010.0 |
| 20260509224743 | 75 | 224 | 2.6 | 5.2 | 0.00 | 0.00 | 0.00 | 46 | 1010.0 |
| 20260509224241 | 75 | 206 | 1.7 | 3.5 | 0.00 | 0.00 | 0.00 | 47 | 1010.1 |
| 20260509223737 | 75 | 240 | 0.0 | 2.6 | 0.00 | 0.00 | 0.00 | 49 | 1010.1 |
| 20260509223234 | 75 | 275 | 4.3 | 5.2 | 0.00 | 0.00 | 0.00 | 45 | 1010.0 |
| 20260509222731 | 76 | 215 | 0.0 | 2.6 | 0.00 | 0.00 | 0.00 | 47 | 1009.9 |
| 20260509222226 | 75 | 251 | 1.7 | 2.6 | 0.00 | 0.00 | 0.00 | 48 | 1009.9 |
| 20260509221722 | 73 | 264 | 1.7 | 3.5 | 0.00 | 0.00 | 0.00 | 48 | 1009.8 |
| 20260509221219 | 73 | 224 | 0.9 | 3.5 | 0.00 | 0.00 | 0.00 | 49 | 1010.2 |
| 20260509220714 | 73 | 242 | 1.7 | 2.6 | 0.00 | 0.00 | 0.00 | 48 | 1009.9 |
| 20260509220211 | 73 | 224 | 2.6 | 3.5 | 0.00 | 0.00 | 0.00 | 49 | 1010.1 |
| 20260509215707 | 73 | 212 | 2.6 | 6.1 | 0.00 | 0.00 | 0.00 | 47 | 1010.1 |
| 20260509215204 | 74 | 162 | 1.7 | 5.2 | 0.00 | 0.00 | 0.00 | 48 | 1010.1 |
| 20260509214701 | 74 | 217 | 4.3 | 6.1 | 0.00 | 0.00 | 0.00 | 46 | 1010.2 |
| 20260509214158 | 73 | 191 | 2.6 | 5.2 | 0.00 | 0.00 | 0.00 | 46 | 1010.1 |
| 20260509213655 | 74 | 240 | 2.6 | 5.2 | 0.00 | 0.00 | 0.00 | 45 | 1009.9 |
| 20260509213150 | 74 | 250 | 2.6 | 5.2 | 0.00 | 0.00 | 0.00 | 46 | 1010.0 |
| 20260509212648 | 74 | 275 | 7.0 | 9.6 | 0.00 | 0.00 | 0.00 | 45 | 1010.1 |
| 20260509212144 | 75 | 272 | 5.2 | 7.8 | 0.00 | 0.00 | 0.00 | 44 | 1009.8 |
| 20260509211640 | 77 | 213 | 1.7 | 7.0 | 0.00 | 0.00 | 0.00 | 47 | 1010.0 |
| 20260509211137 | 77 | 261 | 2.6 | 3.5 | 0.00 | 0.00 | 0.00 | 42 | 1009.7 |
| 20260509210635 | 75 | 260 | 1.7 | 3.5 | 0.00 | 0.00 | 0.00 | 43 | 1009.8 |
| 20260509210132 | 73 | 226 | 0.0 | 3.5 | 0.00 | 0.00 | 0.00 | 49 | 1009.9 |
| 20260509205626 | 74 | 253 | 4.3 | 7.0 | 0.00 | 0.00 | 0.00 | 46 | 1009.7 |
| 20260509205121 | 76 | 114 | 0.9 | 1.7 | 0.00 | 0.00 | 0.00 | 46 | 1009.5 |
| 20260509204617 | 77 | 240 | 3.5 | 5.2 | 0.00 | 0.00 | 0.00 | 44 | 1009.6 |
| 20260509204114 | 76 | 258 | 3.5 | 3.5 | 0.00 | 0.00 | 0.00 | 46 | 1009.6 |
| 20260509203610 | 77 | 252 | 3.5 | 7.8 | 0.00 | 0.00 | 0.00 | 43 | 1009.8 |
| 20260509203108 | 76 | 230 | 5.2 | 7.8 | 0.00 | 0.00 | 0.00 | 45 | 1009.8 |
| 20260509202602 | 76 | 221 | 4.3 | 6.1 | 0.00 | 0.00 | 0.00 | 44 | 1009.7 |
| 20260509202058 | 76 | 190 | 5.2 | 7.8 | 0.00 | 0.00 | 0.00 | 44 | 1009.7 |
| 20260509201553 | 74 | 142 | 0.9 | 2.6 | 0.00 | 0.00 | 0.00 | 50 | 1010.0 |
| 20260509201051 | 74 | 207 | 1.7 | 3.5 | 0.00 | 0.00 | 0.00 | 47 | 1009.9 |
| 20260509200550 | 75 | 246 | 1.7 | 7.0 | 0.00 | 0.00 | 0.00 | 45 | 1009.8 |
| 20260509200047 | 76 | 245 | 7.0 | 7.8 | 0.00 | 0.00 | 0.00 | 46 | 1010.0 |
| 20260509195543 | 75 | 153 | 0.9 | 0.9 | 0.00 | 0.00 | 0.00 | 50 | 1009.9 |
| 20260509195038 | 76 | 242 | 5.2 | 12.2 | 0.00 | 0.00 | 0.00 | 45 | 1010.0 |
| 20260509194532 | 74 | 225 | 1.7 | 5.2 | 0.00 | 0.00 | 0.00 | 48 | 1009.9 |
| 20260509194031 | 77 | 121 | 1.7 | 5.2 | 0.00 | 0.00 | 0.00 | 47 | 1010.2 |
| 20260509193530 | 76 | 197 | 3.5 | 7.0 | 0.00 | 0.00 | 0.00 | 47 | 1010.4 |
| 20260509193027 | 74 | 213 | 5.2 | 6.1 | 0.00 | 0.00 | 0.00 | 51 | 1010.4 |
| 20260509192519 | 75 | 250 | 6.1 | 8.7 | 0.00 | 0.00 | 0.00 | 51 | 1010.5 |
| 20260509192013 | 74 | 216 | 5.2 | 7.0 | 0.00 | 0.00 | 0.00 | 50 | 1010.5 |
| 20260509191508 | 73 | 217 | 1.7 | 7.8 | 0.00 | 0.00 | 0.00 | 52 | 1010.6 |
| 20260509191004 | 73 | 220 | 2.6 | 3.5 | 0.00 | 0.00 | 0.00 | 50 | 1010.6 |
| 20260509190501 | 72 | 222 | 3.5 | 7.0 | 0.00 | 0.00 | 0.00 | 55 | 1010.6 |
| 20260509185959 | 71 | 103 | 1.7 | 3.5 | 0.00 | 0.00 | 0.00 | 54 | 1010.9 |
| 20260509185455 | 72 | 212 | 1.7 | 6.1 | 0.00 | 0.00 | 0.00 | 58 | 1011.0 |
| 20260509184952 | 73 | 198 | 3.5 | 5.2 | 0.00 | 0.00 | 0.00 | 49 | 1011.0 |
| 20260509184450 | 73 | 253 | 6.1 | 7.0 | 0.00 | 0.00 | 0.00 | 51 | 1011.1 |
| 20260509183947 | 71 | 263 | 4.3 | 7.8 | 0.00 | 0.00 | 0.00 | 57 | 1010.9 |
| 20260509183447 | 71 | 245 | 2.6 | 3.5 | 0.00 | 0.00 | 0.00 | 57 | 1011.1 |
| 20260509182944 | 70 | 221 | 2.6 | 6.1 | 0.00 | 0.00 | 0.00 | 57 | 1011.1 |
| 20260509182440 | 70 | 228 | 3.5 | 7.0 | 0.00 | 0.00 | 0.00 | 57 | 1011.1 |
| 20260509181937 | 70 | 231 | 2.6 | 5.2 | 0.00 | 0.00 | 0.00 | 59 | 1011.3 |
| 20260509181435 | 69 | 189 | 5.2 | 6.1 | 0.00 | 0.00 | 0.00 | 58 | 1011.6 |
| 20260509180932 | 70 | 221 | 2.6 | 5.2 | 0.00 | 0.00 | 0.00 | 58 | 1011.7 |
| 20260509180427 | 69 | 237 | 3.5 | 6.1 | 0.00 | 0.00 | 0.00 | 58 | 1011.6 |
| 20260509175924 | 69 | 210 | 0.9 | 7.0 | 0.00 | 0.00 | 0.00 | 61 | 1011.7 |
| 20260509175421 | 69 | 211 | 1.7 | 7.8 | 0.00 | 0.00 | 0.00 | 60 | 1012.0 |
| 20260509174917 | 69 | 273 | 3.5 | 5.2 | 0.00 | 0.00 | 0.00 | 61 | 1012.1 |
| 20260509174413 | 69 | 225 | 3.5 | 3.5 | 0.00 | 0.00 | 0.00 | 58 | 1012.4 |
| 20260509173910 | 69 | 211 | 2.6 | 3.5 | 0.00 | 0.00 | 0.00 | 60 | 1012.3 |
| 20260509173409 | 67 | 139 | 0.9 | 3.5 | 0.00 | 0.00 | 0.00 | 62 | 1012.3 |
| 20260509172906 | 67 | 220 | 2.6 | 3.5 | 0.00 | 0.00 | 0.00 | 60 | 1012.1 |
| 20260509172403 | 67 | 232 | 2.6 | 6.1 | 0.00 | 0.00 | 0.00 | 60 | 1012.3 |
| 20260509171858 | 67 | 215 | 1.7 | 5.2 | 0.00 | 0.00 | 0.00 | 62 | 1012.5 |
| 20260509171354 | 67 | 243 | 7.0 | 7.8 | 0.00 | 0.00 | 0.00 | 60 | 1012.6 |
| 20260509170851 | 67 | 177 | 0.9 | 1.7 | 0.00 | 0.00 | 0.00 | 61 | 1012.7 |
| 20260509170341 | 68 | 224 | 5.2 | 6.1 | 0.00 | 0.00 | 0.00 | 59 | 1012.5 |
| 20260509165836 | 68 | 213 | 0.0 | 0.9 | 0.00 | 0.00 | 0.00 | 64 | 1012.5 |
| 20260509165330 | 67 | 232 | 3.5 | 5.2 | 0.00 | 0.00 | 0.00 | 60 | 1012.5 |
| 20260509164827 | 67 | 248 | 3.5 | 5.2 | 0.00 | 0.00 | 0.00 | 61 | 1012.3 |
| 20260509164323 | 67 | 226 | 5.2 | 8.7 | 0.00 | 0.00 | 0.00 | 59 | 1012.2 |
| 20260509163819 | 67 | 254 | 4.3 | 7.0 | 0.00 | 0.00 | 0.00 | 60 | 1012.4 |
| 20260509163316 | 69 | 213 | 2.6 | 6.1 | 0.00 | 0.00 | 0.00 | 60 | 1012.3 |
| 20260509162815 | 69 | 270 | 5.2 | 7.0 | 0.00 | 0.00 | 0.00 | 57 | 1012.1 |
| 20260509162308 | 68 | 210 | 1.7 | 2.6 | 0.00 | 0.00 | 0.00 | 61 | 1012.2 |
| 20260509161805 | 68 | 242 | 3.5 | 5.2 | 0.00 | 0.00 | 0.00 | 61 | 1012.3 |
| 20260509161301 | 67 | 241 | 7.8 | 9.6 | 0.00 | 0.00 | 0.00 | 58 | 1012.4 |
| 20260509160756 | 68 | 267 | 5.2 | 7.8 | 0.00 | 0.00 | 0.00 | 59 | 1012.5 |
| 20260509160253 | 67 | 248 | 4.3 | 7.0 | 0.00 | 0.00 | 0.00 | 60 | 1012.3 |
| 20260509155748 | 68 | 175 | 3.5 | 7.8 | 0.00 | 0.00 | 0.00 | 59 | 1012.6 |
| 20260509155245 | 67 | 226 | 5.2 | 7.8 | 0.00 | 0.00 | 0.00 | 58 | 1012.3 |
| 20260509154741 | 67 | 174 | 2.6 | 5.2 | 0.00 | 0.00 | 0.00 | 60 | 1012.4 |
| 20260509154238 | 68 | 251 | 2.6 | 3.5 | 0.00 | 0.00 | 0.00 | 60 | 1012.5 |
| 20260509153736 | 68 | 227 | 3.5 | 6.1 | 0.00 | 0.00 | 0.00 | 59 | 1012.6 |
| 20260509153231 | 66 | 217 | 1.7 | 2.6 | 0.00 | 0.00 | 0.00 | 60 | 1012.6 |
| 20260509152727 | 66 | 222 | 1.7 | 2.6 | 0.00 | 0.00 | 0.00 | 62 | 1012.3 |
| 20260509152219 | 67 | 193 | 1.7 | 5.2 | 0.00 | 0.00 | 0.00 | 62 | 1012.3 |
| 20260509151716 | 66 | 220 | 1.7 | 2.6 | 0.00 | 0.00 | 0.00 | 61 | 1012.9 |
| 20260509151213 | 65 | 236 | 1.7 | 3.5 | 0.00 | 0.00 | 0.00 | 61 | 1012.9 |
| 20260509150711 | 67 | 227 | 4.3 | 7.8 | 0.00 | 0.00 | 0.00 | 60 | 1012.9 |
| 20260509150209 | 66 | 207 | 3.5 | 6.1 | 0.00 | 0.00 | 0.00 | 58 | 1012.7 |
| 20260509145705 | 65 | 205 | 3.5 | 5.2 | 0.00 | 0.00 | 0.00 | 58 | 1012.6 |
| 20260509145200 | 65 | 211 | 4.3 | 5.2 | 0.00 | 0.00 | 0.00 | 61 | 1012.6 |
| 20260509144657 | 65 | 222 | 2.6 | 3.5 | 0.00 | 0.00 | 0.00 | 59 | 1012.6 |
| 20260509144154 | 65 | 229 | 1.7 | 1.7 | 0.00 | 0.00 | 0.00 | 61 | 1012.7 |
| 20260509143651 | 63 | 267 | 0.9 | 7.0 | 0.00 | 0.00 | 0.00 | 63 | 1012.6 |
| 20260509143149 | 62 | 130 | 0.0 | 0.9 | 0.00 | 0.00 | 0.00 | 67 | 1012.7 |
| 20260509142644 | 62 | 241 | 2.6 | 7.0 | 0.00 | 0.00 | 0.00 | 64 | 1012.8 |
| 20260509142141 | 61 | 221 | 0.0 | 2.6 | 0.00 | 0.00 | 0.00 | 66 | 1012.9 |
| 20260509141637 | 62 | 187 | 3.5 | 5.2 | 0.00 | 0.00 | 0.00 | 64 | 1013.0 |
| 20260509141133 | 61 | 255 | 0.0 | 0.9 | 0.00 | 0.00 | 0.00 | 63 | 1013.2 |
| 20260509140630 | 60 | 233 | 0.9 | 2.6 | 0.00 | 0.00 | 0.00 | 69 | 1013.2 |
| 20260509140128 | 60 | 220 | 1.7 | 3.5 | 0.00 | 0.00 | 0.00 | 67 | 1013.3 |
| 20260509135625 | 60 | 242 | 1.7 | 2.6 | 0.00 | 0.00 | 0.00 | 66 | 1013.3 |
| 20260509135123 | 59 | 271 | 2.6 | 3.5 | 0.00 | 0.00 | 0.00 | 69 | 1013.6 |
| 20260509134619 | 59 | 226 | 1.7 | 2.6 | 0.00 | 0.00 | 0.00 | 69 | 1013.4 |
| 20260509134117 | 59 | 227 | 1.7 | 3.5 | 0.00 | 0.00 | 0.00 | 67 | 1013.4 |
| 20260509133614 | 58 | 159 | 0.0 | 2.6 | 0.00 | 0.00 | 0.00 | 70 | 1013.5 |
| 20260509133111 | 58 | 155 | 1.7 | 6.1 | 0.00 | 0.00 | 0.00 | 68 | 1013.6 |
| 20260509132609 | 58 | 246 | 1.7 | 2.6 | 0.00 | 0.00 | 0.00 | 66 | 1013.6 |
| 20260509132108 | 58 | 204 | 2.6 | 2.6 | 0.00 | 0.00 | 0.00 | 67 | 1013.5 |
| 20260509131603 | 58 | 219 | 2.6 | 2.6 | 0.00 | 0.00 | 0.00 | 68 | 1013.5 |
| 20260509131100 | 58 | 219 | 0.9 | 1.7 | 0.00 | 0.00 | 0.00 | 69 | 1013.4 |
| 20260509130556 | 58 | 196 | 3.5 | 3.5 | 0.00 | 0.00 | 0.00 | 68 | 1013.4 |
| 20260509130053 | 58 | 186 | 0.0 | 0.9 | 0.00 | 0.00 | 0.00 | 68 | 1013.4 |
| 20260509125549 | 58 | 221 | 0.0 | 0.9 | 0.00 | 0.00 | 0.00 | 70 | 1013.3 |
| 20260509125046 | 57 | 232 | 0.0 | 0.0 | 0.00 | 0.00 | 0.00 | 70 | 1013.5 |
| 20260509124542 | 56 | 218 | 0.0 | 0.0 | 0.00 | 0.00 | 0.00 | 70 | 1013.5 |
| 20260509124040 | 56 | 222 | 0.0 | 1.7 | 0.00 | 0.00 | 0.00 | 71 | 1013.6 |
| 20260509123538 | 56 | 228 | 0.0 | 1.7 | 0.00 | 0.00 | 0.00 | 70 | 1013.4 |
| 20260509123034 | 56 | 218 | 0.0 | 0.0 | 0.00 | 0.00 | 0.00 | 70 | 1013.4 |
| 20260509122530 | 56 | 218 | 0.0 | 0.0 | 0.00 | 0.00 | 0.00 | 70 | 1013.4 |
| 20260509122027 | 55 | 218 | 0.0 | 0.0 | 0.00 | 0.00 | 0.00 | 72 | 1013.5 |
| 20260509121524 | 55 | 220 | 0.0 | 0.0 | 0.00 | 0.00 | 0.00 | 71 | 1013.5 |
| 20260509121022 | 55 | 219 | 0.9 | 1.7 | 0.00 | 0.00 | 0.00 | 70 | 1013.4 |
| 20260509120520 | 55 | 208 | 0.0 | 0.0 | 0.00 | 0.00 | 0.00 | 71 | 1013.5 |
| 20260509120018 | 54 | 235 | 0.0 | 0.9 | 0.00 | 0.00 | 0.00 | 71 | 1013.5 |
| 20260509115514 | 54 | 238 | 0.0 | 0.0 | 0.00 | 0.00 | 0.00 | 71 | 1013.4 |
| 20260509115012 | 54 | 190 | 0.0 | 0.0 | 0.00 | 0.00 | 0.00 | 72 | 1013.4 |
| 20260509114510 | 54 | 218 | 0.0 | 0.9 | 0.00 | 0.00 | 0.00 | 70 | 1013.5 |
| 20260509114009 | 54 | 208 | 0.0 | 1.7 | 0.00 | 0.00 | 0.00 | 70 | 1013.5 |
| 20260509113507 | 54 | 187 | 0.9 | 2.6 | 0.00 | 0.00 | 0.00 | 69 | 1013.5 |
| 20260509113004 | 53 | 214 | 0.0 | 2.6 | 0.00 | 0.00 | 0.00 | 71 | 1013.3 |
| 20260509112500 | 53 | 195 | 0.0 | 0.9 | 0.00 | 0.00 | 0.00 | 71 | 1013.3 |
| 20260509111956 | 53 | 226 | 0.0 | 0.0 | 0.00 | 0.00 | 0.00 | 72 | 1013.4 |
| 20260509111454 | 53 | 226 | 0.0 | 0.0 | 0.00 | 0.00 | 0.00 | 72 | 1013.0 |
| 20260509110952 | 52 | 226 | 0.0 | 0.9 | 0.00 | 0.00 | 0.00 | 72 | 1013.2 |
| 20260509110448 | 52 | 226 | 0.0 | 0.0 | 0.00 | 0.00 | 0.00 | 72 | 1013.0 |
| 20260509105945 | 52 | 226 | 0.0 | 0.0 | 0.00 | 0.00 | 0.00 | 71 | 1013.1 |
| 20260509105444 | 52 | 226 | 0.0 | 0.9 | 0.00 | 0.00 | 0.00 | 71 | 1013.2 |
| 20260509104941 | 51 | 230 | 0.9 | 0.9 | 0.00 | 0.00 | 0.00 | 72 | 1013.2 |
| 20260509104437 | 51 | 275 | 0.0 | 0.0 | 0.00 | 0.00 | 0.00 | 73 | 1013.3 |
| 20260509103935 | 51 | 275 | 0.0 | 0.0 | 0.00 | 0.00 | 0.00 | 74 | 1013.2 |
| 20260509103432 | 51 | 275 | 0.0 | 0.0 | 0.00 | 0.00 | 0.00 | 72 | 1013.1 |
| 20260509102930 | 51 | 275 | 0.0 | 0.0 | 0.00 | 0.00 | 0.00 | 73 | 1013.1 |
| 20260509102427 | 51 | 274 | 0.0 | 0.0 | 0.00 | 0.00 | 0.00 | 72 | 1013.2 |
| 20260509101923 | 51 | 50 | 0.0 | 0.0 | 0.00 | 0.00 | 0.00 | 71 | 1013.2 |
| 20260509101419 | 52 | 50 | 0.0 | 0.0 | 0.00 | 0.00 | 0.00 | 70 | 1013.2 |
| 20260509100917 | 52 | 50 | 0.0 | 0.0 | 0.00 | 0.00 | 0.00 | 70 | 1013.1 |
| 20260509100414 | 52 | 49 | 0.0 | 0.0 | 0.00 | 0.00 | 0.00 | 70 | 1013.1 |
| 20260509095911 | 51 | 43 | 0.0 | 0.0 | 0.00 | 0.00 | 0.00 | 70 | 1013.2 |
| 20260509095408 | 51 | 35 | 0.0 | 0.0 | 0.00 | 0.00 | 0.00 | 71 | 1013.1 |
| 20260509094905 | 51 | 35 | 0.0 | 0.0 | 0.00 | 0.00 | 0.00 | 70 | 1013.1 |
| 20260509094401 | 52 | 35 | 0.0 | 0.0 | 0.00 | 0.00 | 0.00 | 70 | 1013.4 |
| 20260509093859 | 52 | 35 | 0.0 | 0.0 | 0.00 | 0.00 | 0.00 | 69 | 1013.5 |
| 20260509093356 | 52 | 35 | 0.0 | 0.0 | 0.00 | 0.00 | 0.00 | 68 | 1013.5 |
| 20260509092855 | 52 | 41 | 0.0 | 0.0 | 0.00 | 0.00 | 0.00 | 68 | 1013.6 |
| 20260509092352 | 52 | 41 | 0.0 | 0.0 | 0.00 | 0.00 | 0.00 | 68 | 1013.5 |
| 20260509091850 | 52 | 41 | 0.0 | 0.0 | 0.00 | 0.00 | 0.00 | 67 | 1013.4 |
| 20260509091347 | 52 | 41 | 0.0 | 0.0 | 0.00 | 0.00 | 0.00 | 66 | 1013.4 |
| 20260509090844 | 53 | 41 | 0.0 | 0.0 | 0.00 | 0.00 | 0.00 | 65 | 1013.4 |
| 20260509090342 | 53 | 41 | 0.0 | 0.0 | 0.00 | 0.00 | 0.00 | 65 | 1013.5 |
| 20260509085839 | 53 | 41 | 0.0 | 0.0 | 0.00 | 0.00 | 0.00 | 65 | 1013.5 |
| 20260509085336 | 53 | 41 | 0.0 | 0.0 | 0.00 | 0.00 | 0.00 | 65 | 1013.6 |
| 20260509084832 | 53 | 41 | 0.0 | 0.9 | 0.00 | 0.00 | 0.00 | 64 | 1013.5 |
| 20260509084329 | 53 | 44 | 0.0 | 0.9 | 0.00 | 0.00 | 0.00 | 65 | 1013.8 |
| 20260509083827 | 52 | 216 | 0.0 | 0.0 | 0.00 | 0.00 | 0.00 | 67 | 1013.7 |
| 20260509083323 | 52 | 216 | 0.0 | 0.0 | 0.00 | 0.00 | 0.00 | 67 | 1013.6 |
| 20260509082820 | 53 | 216 | 0.0 | 0.0 | 0.00 | 0.00 | 0.00 | 66 | 1013.7 |
| 20260509082316 | 53 | 216 | 0.0 | 0.0 | 0.00 | 0.00 | 0.00 | 66 | 1013.9 |
| 20260509081814 | 53 | 216 | 0.0 | 0.0 | 0.00 | 0.00 | 0.00 | 66 | 1013.9 |
| 20260509081311 | 53 | 216 | 0.0 | 0.0 | 0.00 | 0.00 | 0.00 | 66 | 1013.9 |
| 20260509080809 | 53 | 216 | 0.0 | 0.0 | 0.00 | 0.00 | 0.00 | 66 | 1013.9 |
| 20260509080307 | 53 | 216 | 0.0 | 0.0 | 0.00 | 0.00 | 0.00 | 65 | 1013.8 |
| 20260509075805 | 53 | 216 | 0.0 | 0.0 | 0.00 | 0.00 | 0.00 | 64 | 1013.8 |
| 20260509075305 | 53 | 216 | 0.0 | 0.0 | 0.00 | 0.00 | 0.00 | 64 | 1013.7 |
| 20260509074759 | 53 | 216 | 0.0 | 0.0 | 0.00 | 0.00 | 0.00 | 65 | 1013.8 |
| 20260509074257 | 53 | 226 | 0.0 | 0.0 | 0.00 | 0.00 | 0.00 | 64 | 1013.9 |
| 20260509073752 | 53 | 227 | 0.0 | 0.9 | 0.00 | 0.00 | 0.00 | 64 | 1013.8 |
| 20260509073249 | 53 | 216 | 0.0 | 0.0 | 0.00 | 0.00 | 0.00 | 64 | 1013.9 |
| 20260509072745 | 54 | 216 | 0.0 | 0.0 | 0.00 | 0.00 | 0.00 | 63 | 1014.1 |
| 20260509072242 | 54 | 216 | 0.0 | 0.0 | 0.00 | 0.00 | 0.00 | 62 | 1013.9 |
| 20260509071739 | 55 | 217 | 0.0 | 0.0 | 0.00 | 0.00 | 0.00 | 61 | 1014.1 |
| 20260509071236 | 55 | 216 | 1.7 | 1.7 | 0.00 | 0.00 | 0.00 | 59 | 1013.9 |
| 20260509070733 | 55 | 227 | 0.9 | 1.7 | 0.00 | 0.00 | 0.00 | 60 | 1013.9 |
| 20260509070230 | 55 | 243 | 0.9 | 1.7 | 0.00 | 0.00 | 0.00 | 59 | 1014.0 |